THOR ABLESTAR DEB, 268

Orbit data source: Space-Track

THOR ABLESTAR DEB, 268 is space debris in LEO originally from a launch on Thu, 29 Jun 1961 UTC launched from the Air Force Eastern Test Range (AFETR). Debris objects in space refer to the collection of defunct objects orbiting the Earth. Examples of debris include non-operational satellites, rocket bodies, and fragments generated from explosions, collisions, or faulty payload assembly.

Loading next visibility...
Identifier
268, 1961-015CN
Orbit
LEO
Country
Flag of USUS
Related business
Manufacturer
Unknown
Mission
Spacecraft
Bus & Motor
Unknown
Mass
Unknown
Launch date (UTC)
1961-06-29 (64 years ago)
Launch vehicle
Unknown
Launch site
Air Force Eastern Test Range (AFETR)
Object type
Payload
Rocket body
Debris
Shape & HBR
Unknown shape, 0.1 m
Radar Cross Section
Medium (>0.1 m² and <1 m²)

Expand to show TLE details & history
Last TLE update: 4 hours ago

TLE from 4 hours ago
0 THOR ABLESTAR DEB
1   268U 61015CN  25308.85451358  .00000805  00000-0  25180-2 0  9997
2   268  67.9388 257.8325 0651107 308.9912  72.2168 12.51602570925183
Epoch: 2025-11-04T20:30Z
TLE epoch observation values (Epoch: 2025-11-04T20:30:29.973Z)
Latitude
26.26781°
Longitude
-82.64864°
Altitude
1,335.277 km
Speed
7.249 km/s
True Right ascension
17h 57m 14s
True Declination
26° 08' 30"
Sunlit
Object was in daylight at epoch
Visualization orbit readout
Latitude
Unknown
Longitude
Unknown
Altitude
Unknown
Speed
Unknown
Apparent Right ascension
Unknown
Apparent Declination
Unknown
Sunlit
N/A
Visualization observer readout
Local Sidereal Time
20:55:28
Azimuth
Unknown
Elevation
Unknown
Doppler factor
Unknown
Orbital elements
Apogee altitude
1,966.27 km
Perigee altitude
946.075 km
Semi-major axis
7,834.31 km
Eccentricity
0.06511
Inclination
67.9388°
RAAN
257.8325°
Arg. of periapsis
308.9912°
True anomaly
79.48277°
Mean anomaly
72.2168°
Eccentric anomaly
75.83392°
Mean motion
3.12998 °/min
Orbital period
115.02 mins
BSTAR
0.002518

Documentation

Showing up to 5 results
|